Location: Paris
(48.6709°N, 2.3750°E)
Time: 23:17:52
(UTC+02:00)

CUBESAT XI-V - Pass Details

Date: 02 July 2022
Orbit: 668 x 690 km, 98.1° (Epoch: 14 August)

Event Time Altitude Azimuth Distance (km) Brightness Sun altitude
Exits shadow 02:17:00 - 119° (ESE) 2,394 ? -18.1°
Reaches altitude 10° 02:17:52 10° 114° (ESE) 2,106 ? -18.1°
Maximum altitude 02:21:27 23° 62° (ENE) 1,423 ? -18.0°
Drops below altitude 10° 02:25:03 10° 11° (N) 2,110 ? -18.0°
Sets 02:27:39 0° 357° (N) 3,026 ? -17.9°
